sail-world.com
 
 
News Home Cruising Photo Gallery Video Gallery

 

Sail-World.com : Joyon slows - still 3360 miles ahead of MacArthur

Joyon slows - still 3360 miles ahead of MacArthur

'IDEC, photo by JM Liot'    .
Francis Joyon's trimaran IDEC is this morning sailing abeam of Uruguay, well out in the Atlantic.

Yesterday the Frenchman sailed for much of the day in very light winds of less than 10 knots but last night his speed picked up again.

He is still 3360 nautical miles ahead of Dame Ellen MacArthur during her record breaking round the world passage and has only around 5400 miles to go.
Joyon versus MacArthur -    


As he approaches the anticyclone ahead his speeds have continued to drop, as the data below shows.

Date Latitude Longitude Cap Distance au but Avance VMG Vitesses Distance sur 24h
Instant. sur 4h sur 24h
03/01/2008 16:46:00 UTC 36°45,56 S 030°02,96 W 294° 5 295 nm 3 214,91 nm 2,4 Nds 9,1 Nds 7,1 Nds 9,7 Nds 231,7 nm
03/01/2008 15:46:00 UTC 36°50,04 S 029°53,08 W 295° 5 298 nm 3 230,44 nm 2,7 Nds 9,7 Nds 5,4 Nds 10,2 Nds 244,9 nm
03/01/2008 14:46:00 UTC 36°54,88 S 029°42,56 W 293° 5 300 nm 3 245,85 nm 1,9 Nds 7,5 Nds 3,4 Nds 10,4 Nds 250,4 nm
03/01/2008 13:46:00 UTC 36°58,44 S 029°34,28 W 333° 5 302 nm 3 261,71 nm 2,1 Nds 2,6 Nds 2,5 Nds 10,7 Nds 255,8 nm
03/01/2008 12:46:00 UTC 37°00,84 S 029°33,08 W 343° 5 304 nm 3 275,75 nm 2,7 Nds 3,0 Nds 2,3 Nds 11,0 Nds 264,2 nm
03/01/2008 11:46:00 UTC 37°03,76 S 029°32,20 W 5 307 nm 3 289,20 nm 2,2 Nds 2,2 Nds 2,4 Nds 11,4 Nds 272,6 nm
03/01/2008 10:46:00 UTC 37°05,96 S 029°32,28 W 5 309 nm 3 303,16 nm 2,2 Nds 2,2 Nds 2,7 Nds 11,9 Nds 285,4 nm
03/01/2008 09:46:00 UTC 37°08,20 S 029°32,36 W 5 311 nm 3 317,31 nm 2,0 Nds 2,0 Nds 3,0 Nds 12,7 Nds 304,0 nm
03/01/2008 08:46:00 UTC 37°10,20 S 029°32,64 W 5 313 nm 3 332,12 nm 3,2 Nds 3,3 Nds 4,0 Nds 13,5 Nds 323,9 nm
03/01/2008 07:46:00 UTC 37°13,48 S 029°32,80 W 339° 5 317 nm 3 345,68 nm 3,0 Nds 3,5 Nds 5,4 Nds 14,0 Nds 336,7 nm
03/01/2008 05:40:00 UTC 37°20,56 S 029°30,12 W 313° 5 323 nm 3 374,41 nm 3,9 Nds 6,6 Nds 9,6 Nds 15,1 Nds 362,0 nm
03/01/2008 04:40:00 UTC 37°25,60 S 029°24,72 W 324° 5 327 nm 3 386,97 nm 6,2 Nds 8,6 Nds 11,3 Nds 15,6 Nds 374,8 nm
03/01/2008 03:38:00 UTC 37°33,28 S 029°19,04 W 324° 5 333 nm 3 396,94 nm 8,5 Nds 11,6 Nds 13,5 Nds 16,1 Nds 386,4 nm
03/01/2008 02:38:00 UTC 37°43,36 S 029°11,84 W 338° 5 342 nm 3 404,37 nm 10,3 Nds 11,9 Nds 14,9 Nds 16,5 Nds 396,9 nm
03/01/2008 01:38:00 UTC 37°54,76 S 029°07,32 W 352° 5 352 nm 3 410,25 nm 13,1 Nds 13,9 Nds 16,0 Nds 16,9 Nds 406,3 nm
03/01/2008 00:38:00 UTC 38°08,60 S 029°05,28 W 354° 5 365 nm 3 413,26 nm 16,4 Nds 17,3 Nds 17,0 Nds 17,2 Nds 412,8 nm
02/01/2008 23:36:00 UTC 38°26,36 S 029°03,32 W 347° 5 382 nm 3 412,93 nm 15,2 Nds 16,6 Nds 17,2 Nds 17,4 Nds 418,3 nm
02/01/2008 22:36:00 UTC 38°42,64 S 028°59,44 W 352° 5 398 nm 3 413,79 nm 15,5 Nds 16,4 Nds 18,0 Nds 17,8 Nds 426,5 nm
02/01/2008 21:36:00 UTC 38°58,92 S 028°57,16 W 360° 5 413 nm 3 414,34 nm 17,5 Nds 18,0 Nds 19,2 Nds 18,2 Nds 436,1 nm
02/01/2008 20:36:00 UTC 39°16,88 S 028°57,08 W 359° 5 431 nm 3 413,02 nm 17,6 Nds 18,2 Nds 20,1 Nds 18,5 Nds 445,1 nm
02/01/2008 19:34:00 UTC 39°35,64 S 028°56,60 W 5 449 nm 3 411,59 nm 19,2 Nds 19,5 Nds 20,7 Nds 19,0 Nds 455,8 nm
02/01/2008 18:34:00 UTC 39°55,16 S 028°57,36 W 14° 5 468 nm 3 408,61 nm 21,6 Nds 21,6 Nds 19,5 Nds 19,4 Nds 464,6 nm
02/01/2008 17:34:00 UTC 40°16,40 S 029°02,72 W 17° 5 490 nm 3 403,17 nm 21,7 Nds 21,7 Nds 18,8 Nds 19,6 Nds 471,0 nm
02/01/2008 16:34:00 UTC 40°37,52 S 029°09,28 W 21° 5 511 nm 3 397,84 nm 20,4 Nds 20,4 Nds 19,3 Nds 19,9 Nds 476,9 nm
02/01/2008 15:34:00 UTC 40°57,12 S 029°16,76 W 63° 5 532 nm 3 394,93 nm 13,1 Nds 17,8 Nds 20,7 Nds 20,1 Nds 483,3 nm
02/01/2008 14:32:00 UTC 41°07,48 S 029°36,96 W 75° 5 545 nm 3 398,89 nm 12,6 Nds 23,0 Nds 20,0 Nds 20,3 Nds 487,9 nm
02/01/2008 13:32:00 UTC 41°15,32 S 030°05,72 W 72° 5 558 nm 3 401,89 nm 12,9 Nds 21,6 Nds 19,0 Nds 20,3 Nds 487,9 nm
02/01/2008 12:32:00 UTC 41°23,80 S 030°32,16 W 75° 5 571 nm 3 404,52 nm 11,7 Nds 20,6 Nds 19,0 Nds 20,4 Nds 489,2 nm
02/01/2008 11:32:00 UTC 41°30,96 S 030°58,00 W 44° 5 582 nm 3 408,10 nm 15,9 Nds 17,1 Nds 19,1 Nds 20,5 Nds 490,8 nm
02/01/2008 10:30:00 UTC 41°45,32 S 031°11,72 W 27° 5 599 nm 3 407,33 nm 22,4 Nds 22,5 Nds 19,2 Nds 20,6 Nds 495,4 nm
02/01/2008 09:30:00 UTC 42°06,32 S 031°22,64 W 20° 5 621 nm 3 401,19 nm 21,7 Nds 21,7 Nds 19,0 Nds 20,7 Nds 496,6 nm
02/01/2008 08:30:00 UTC 42°27,24 S 031°30,44 W 65° 5 643 nm 3 397,47 nm 13,4 Nds 18,5 Nds 20,3 Nds 20,8 Nds 500,0 nm
02/01/2008 07:30:00 UTC 42°36,96 S 031°51,76 W 74° 5 656 nm 3 401,44 nm 12,4 Nds 20,8 Nds 20,9 Nds 20,7 Nds 497,8 nm
02/01/2008 06:28:00 UTC 42°44,80 S 032°19,00 W 68° 5 669 nm 3 406,39 nm 14,4 Nds 20,6 Nds 20,1 Nds 20,5 Nds 491,1 nm
02/01/2008 05:28:00 UTC 42°54,68 S 032°43,60 W 76° 5 684 nm 3 411,24 nm 12,4 Nds 21,7 Nds 19,9 Nds 20,3 Nds 486,1 nm
02/01/2008 04:28:00 UTC 43°01,60 S 033°11,76 W 75° 5 696 nm 3 419,40 nm 12,3 Nds 20,5 Nds 19,3 Nds 20,0 Nds 479,3 nm
02/01/2008 03:28:00 UTC 43°08,76 S 033°38,00 W 66° 5 708 nm 3 427,83 nm 13,5 Nds 18,1 Nds 18,9 Nds 19,7 Nds 472,9 nm
02/01/2008 02:26:00 UTC 43°18,52 S 033°59,84 W 71° 5 722 nm 3 435,24 nm 13,3 Nds 19,7 Nds 19,3 Nds 19,5 Nds 469,0 nm
02/01/2008 01:26:00 UTC 43°26,88 S 034°24,32 W 73° 5 736 nm 3 442,42 nm 12,3 Nds 19,1 Nds 19,6 Nds 19,4 Nds 464,8 nm
02/01/2008 00:26:00 UTC 43°34,16 S 034°48,64 W 67° 5 748 nm 3 450,64 nm 14,4 Nds 19,1 Nds 20,4 Nds 19,3 Nds 462,7 nm
01/01/2008 23:26:00 UTC 43°43,92 S 035°11,32 W 69° 5 762 nm 3 456,30 nm 14,3 Nds 19,6 Nds 21,3 Nds 19,2 Nds 461,6 nm
01/01/2008 22:24:00 UTC 43°53,52 S 035°36,00 W 65° 5 777 nm 3 462,18 nm 16,6 Nds 20,9 Nds 22,0 Nds 19,2 Nds 460,5 nm
01/01/2008 21:24:00 UTC 44°05,08 S 036°00,28 W 62° 5 794 nm 3 466,05 nm 18,2 Nds 22,2 Nds 22,6 Nds 19,0 Nds 456,7 nm
01/01/2008 20:24:00 UTC 44°18,16 S 036°25,24 W 62° 5 812 nm 3 468,30 nm 18,9 Nds 22,7 Nds 22,7 Nds 18,9 Nds 452,5 nm
01/01/2008 19:24:00 UTC 44°31,72 S 036°50,64 W 65° 5 831 nm 3 469,29 nm 17,9 Nds 22,3 Nds 22,7 Nds 18,7 Nds 448,3 nm
01/01/2008 18:22:00 UTC 44°44,44 S 037°17,56 W 65° 5 849 nm 3 470,48 nm 18,7 Nds 23,4 Nds 22,8 Nds 18,5 Nds 445,0 nm
01/01/2008 17:22:00 UTC 44°57,20 S 037°45,20 W 69° 5 868 nm 3 469,96 nm 17,3 Nds 22,8 Nds 22,4 Nds 18,1 Nds 435,1 nm
01/01/2008 16:22:00 UTC 45°08,24 S 038°13,36 W 65° 5 885 nm 3 470,29 nm 18,5 Nds 22,6 Nds 22,3 Nds 17,6 Nds 423,3 nm
Heures des mise à jour (En fonction des localisations reçues) FR : 08:08, 12:08, 14:08 et 18:08
UTC : 07:08, 11:08, 13:08 et 17:08




by Sail-World.com

  

Click on the FB Like link to post this story to your FB wall

http://www.sail-world.com/index.cfm?nid=40536

11:39 PM Thu 3 Jan 2008 GMT






Click here for printer friendly version
Click here to send us feedback or comments about this story.


News - USA and the World

Student Yachting World Cup - After those days of sun and light air, the weather was upside-down with a cloudy sky threatening us of heavy shower at any time and a strong wind fluctuating from 15 knots to 25 knots! Two windward-leeward races took place today as the wind became far too heavy in the early afternoon. The 13th race began this morning: a second start occurred under black flag. ... [more]  

2014 Argo Group Gold Cup - Over the last few days there have been frantic phone calls between travel agents from competitors at the Argo Group Gold Cup, the sixth stage and the oldest event on the Alpari World Match Racing Tour. Over Friday night and into Saturday the Category Three Hurricane Gonzalo passed directly over Bermuda pummelling it with 100+ knot winds. ... [more]  

Volvo Ocean Race: Big gains for two boats in Doldrums *Feature by Richard Gladwell/Sail-World.com/nz
Two boats have made big gains in the Doldrums, with the western-most competitors apparently not stopping and sailing though the convergence zone between northern and southern hemispheres, without dropping below 8kts. Team Brunel and Abh Dhabi Ocean Racing have both made big gains on the rest of the fleet - and the two easternmost boats - Team Vestas Wind and Mapfre, in particular. ... [more]  

In spite of Hurricane Gonzalo's thrashing of the Onion Patch last week, the Royal Bermuda Yacht Club and the people of Bermuda are ready to host the 2014 Argo Group Gold Cup, Stage 6 of the Alpari World Match Racing Tour (AWMRT). All 20 teams have arrived safely from their corners of the world and will practice for a day and race on Wednesday. ... [more]  

While the Renaissance Re Junior Gold Cup always offers opportunities for young people to have new experiences, coping with Hurricane Gonzalo offered the 14 competitors traveling from overseas to Bermuda a hurdle that strengthened their respect for this island nation. Many of the 14 competitors spent layover time in either hotels or airports and some are now guests in homes without electricity. ... [more]  

Dynamic Stability Systems welcomes last week’s decision by IMOCA to place no further restrictions on its class rule. This permits both the six new IMOCA 60s currently under construction, as well as the existing fleet, to be fitted with the lateral lifting foils which DSS has spent the last decade pioneering. ... [more]  

Groupe Beneteau today announced its sponsorship of the US Sailing Team Sperry Top-Sider and ISAF Sailing World Cup Miami. Groupe Beneteau is the world's leading yacht builder, and will now become a significant presence in high-performance sailing with its support of both the US national sailing team and North America's premier Olympic and Paralympic classes regatta. ... [more]  

Volvo Ocean Race 2014-15. It’s the place where the northern and southern winds meet, where a sailing race can be won or lost in an instant. And with its complex and confusing conditions, lack of breeze, and stifling heat – it’s also a place that most sailors can’t wait to see the back of. But there is one good thing about the Doldrums. ... [more]  

The Atlantic has proved to be a test for the VO65s in the Volvo Ocean Race and their teams as a battle of gybing down the west coast of Africa broke out, keeping all boats in a relatively tight-knit pack for much longer than expected. Having passed Morocco and the Canaries, we were drawn to the tricky-to-handle magnet of Cape Verde. ... [more]  

It’s the dawn of a complicated day in the Volvo Ocean Race. Let’s face it: we’re not having a very good time on Dongfeng. We lost distance last night, and our leading position. The day got dull afterwards. Sailing straight ahead, with the spinnaker up, in light winds. ... [more]  

Volvo Ocean Race 2014-15, Day 10 onboard Team SCA. Two days, eight hours, thirty-four minutes, and ten seconds, nine seconds, eight, seven, six, five… over the last few days the clock has gotten louder and louder as it counts down to October 23rd at noon—the time when we cross the equator and the time when myself and six other sailors join the rest of our crew in King Neptune’s court. ... [more]  

For Pablo Arrarte Elorza, the Volvo Ocean Race is a tough challenge. Not as far as physical effort is concerned because this likeable Spaniard is a very strong guy. For Pablo, the race is mostly a culinary war of attrition because the food that the team has bought with it on the race does little to please his gourmet palate. ... [more]  

The 2014 RS:X Youth Worlds kicked off on October 20th in Clearwater, USA, and it was hard work from the start: in 5-6 kt of breeze, offshore to start the day and side-on to close it, pumping was in order for the 54 boys and 28 girls gathered here for the 2014 RS:X Youth World Windsurfing Championships. ... [more]  

The team at The St. Maarten Heineken Regatta are very happy to announce that entries are now open for the 2015 Regatta, taking place March 5 - 8. The team hopes to see lots of return entries as well as new ones this year, all coming to celebrate the event's 35th year. In order to celebrate this milestone year, there will be some new features this coming season. ... [more]  

After three complete days at sea only three boats competing in the 2014 Rolex Middle Sea Race have passed the northwest tip of Sicily, roughly the halfway point of the race. The prevailing wind remains weak, but is expected to strengthen this afternoon coinciding with the arrival of bulk of the fleet t the Egadi Islands. ... [more]  

Last week the Volvo Ocean Race was all about VMG downwind sailing, with Dongfeng being the star performer. After DFRT took the lead, they shortly lost it again 36 hours later after hitting something in the water and losing their rudder. Two hours later they were up and running again with the spare in. Impressive stuff. ... [more]  

Volvo Ocean Race: Blogs from the Boats - Leg 1, Day 9 plus Videos *Feature by Richard Gladwell/Sail-World.nz/com
Several of the On Board Reporters aboard, provide their unique views of Leg 1, Day 9 of the Volvo Ocean Race - in text, images and video. ... [more]  

Rolex Middle Sea Race 2014 - Fight to the finish by Media Royal Malta Yacht Club
Igor Simicic's maxi, Esimit Europa 2 is expected to finish the Rolex Middle Sea Race in the early hours of tomorrow morning. However the 100ft carbon fibre canting keel Maxi is under serious pressure to secure their fourth Line Honours victory in the race. ... [more]  

Italy won two races (windward-leeward race (ninth race) and coastal race (11th race), Switzerland won the second race of the day (10th race) and Ireland the last one (12th race). A lot of tactics was required to make best use of the little wind. The first race (windward-leeward race, 0,8nm) started at four knots. A second start under black flag happened. ... [more]  

PredictWind have made significant improvements to the swell forecasting models and added new locations. Integrating the new 50km global wind forecast with ocean current data has created the most advanced swell modelling available online. By combining PredictWind forecast data with ocean current data, the effect of the wind on swells can be accounted for ... [more]  

The battle continues for the lead in the Volvo Ocean Race, with the front running being taken up by different competitors on a regular basis. With the first boats about to enter the Doldrums, anything can happen - with the outcome being decided by navigational skill and experience, rather than being resolved on a computer. ... [more]  

The Renaissance Re Junior Gold Cup, now in its 12th year, is known around the world as an international championship of junior champions. It runs parallel to the penultimate event on the World Match Racing Tour, the Argo Group Gold Cup. ... [more]  

Volvo Ocean Race: Fleet charges the door of the Doldrums Casino *Feature by Richard Gladwell/Sail-World.com/nz
The Volvo Ocean Race has lifted intensity again on Day 9 with the fleet spread across 100nm of ocean and charging in a line for the turning point of Fernando de Noronha, 220nm off the Brazilian coast. ... [more]  

As expected the third day of the 2014 La Torche PWA Grand Slam proved to be a quiet affair with very light winds throughout the day. After a chilly and overcast start, the sun eventually broke through to produce another beautiful afternoon in La Torche. ... [more]  

The first eight days of the 2014-15 Volvo Ocean Race have been filled with more excitement and tighter racing than anyone could have anticipated. Up until Saturday morning, Leg One has left the fleet with few tactical options and therefore has kept everyone tightly packed as one unit of seven boats. ... [more]  

Volvo Ocean Race 2014-15. The sun’s out. It’s warm – not too hot, but warm enough for just a tee shirt. Ian Walker is stood at the helm of his Emirati boat, generous Atlantic trade winds whistling past his ears. 'We’re going straight through,' he claims, confidently. 'What Doldrums? - they’re going to say. Azzam isn’t even going to slow down.' ... [more]  

At 1700 CET in the Rolex Middle Sea Race, 113 yachts had rounded Stromboli, the active volcano that marks the most northerly point of the course. Race leader on the water, Esimit Europa 2, was less than 20 miles from Favignana and preparing to turn south with 289 miles to go and is expected to finish the race in the early hours of Wednesday 22 October, which would be well outside the course record ... [more]  

It is with great pleasure that the Star Sailors League announces that two more top Brazilian sailors will be joining the fleet of 20 super-champions taking part in the Star Sailors League Finals 2014 being held for the second consecutive year at Nassau Yacht Club in the Bahamas between December 1st and 7th. ... [more]  

Volvo Ocean Race 2014-15, Day Nine onboard Team Alvimedica. It’s hard to explain the complexity of the weather in this part of the world. No computer model or forecaster can accurately predict the winds because the air here is dry and warm, 23c now, and the typical barometric pressure gradients that generate them become very weak. ... [more]  

Volvo Ocean Race 2014-15, Day Nine onboard Team SCA. We’re a boat on a mission: catch the fleet. And they’re getting closer by the mile. The first time I sailed past Cape Verde islands was in 2010 when I was helping deliver a catamaran from Gibraltar to Antigua, W.I. ... [more]  

Thailand bids for 2016 IODA ‘Optimist’ World Championships by Jordan Rumsby, Royal Varuna Yacht Club
Pattaya's Royal Varuna Yacht Club has submitted a bid to host the 2016 International Optimist Dinghy Association World Championships, offering the world's most talented junior sailing teams a chance to experience the steady wind, sunshine, smiles, great food, and family-friendly attractions of Thailand's top dinghy sailing destination ... [more]  

Photographer Ellen Hoke was on the water at the Farr 40 Worlds sailed from the St Francis Yacht Club, San Francisco, and provided this second gallery of images from the Final Day - Day 4 Prizegiving ... [more]  

Bill Green - builder and sailor passes on by Malcolm McKeag, Scuttlebutt Europe, Lymington, England:
Bill Green, San Francisco-born sailor, Navy jet jockey (not a lot of people know that); US Coastguard; shrimp-boat hand (not a lot of people know that either); One Ton Cup winner and most latterly proprietor of Green Marine slipped quietly away from this life ... [more]  

ISAF World Sailing Rankings – 20 October 2014
Farr 40 Worlds: Images from the Final day in San Francisco *Feature
Farr 40 Worlds: Images from Day 2 in San Francisco *Feature
Rolex Middle Sea Race 2014 - A hard day's night
34th Student Yachting World Cup 2014 - Second race day
Volvo Ocean Race: Dongfeng loses lead, anyone's race ahead of Doldrums *Feature
Flying Dreams 'An Ocean Story': The Movie
New super maxis gear up for Rolex Sydney Hobart
Volvo Ocean Race: Blogs from the Boats - Leg 1, Day 8 plus Videos *Feature
Linda Elias Memorial Women’s One Design Challenge - Youngerman wins
2014 Off Valparaíso Race - Santander team victorious
La Torche PWA Grand Slam - Waves continue to pound on day 2
Volvo Ocean Race: Dongfeng consolidates lead on Day 8 *Feature
RS:X Youth World Championships - All set for Clearwater action
Rolex Middle Sea Race 2014 - Slow road north
Volvo Ocean Race 2014-15 – Dongfeng Race Team - A risky call
Rolex Middle Sea Race 2014 - Escaping the shroud of Mount Etna
Farr 40 Worlds: Day 4 Image and Video gallery *Feature
Australian 18 Footers League’s Major A. Frizelle Trophy
Volvo Ocean Race 2014-15 - Leader gambles on Island windshadow
2014 Sailing World Cup Qingdao - Final day video highlights   
2014 Rolex Farr 40 World Championship - Plenty of time   
Coast Guard rescues two near Wachapreague   
2014 Off Valparaíso Race - Day 2   
La Torche PWA Grand Slam - Massive swell on day 1   
Volvo Ocean Race: Welcome to Al's Ocean Cafe   
Argo Group Gold Cup survives Hurricane Gonzalo   
Volvo Ocean Race: Dongfeng regains lead after incident packed Day 7 *Feature   
Volvo Ocean Race: Dramatic video of Dongfeng rudder replacement   
Volvo Ocean Race - Team Alvimedica bounces back   
Volvo Ocean Race - Team SCA expecting the expected + Video   
Rolex Middle Sea Race - New record for Mediterranean classic   
ISAF Sailing World Cup Qingdao - Medallists decided across six fleets   
Volvo Ocean Race - Impressive turnaround for Dongfeng Race Team +Video   
Volvo Ocean Race: Race closer than leaderboard suggests - Leg 1, Day 6   
Volvo Ocean Race: Dongfeng Race Team break rudder after collision   
2014 Rolex Farr 40 World Championship - Famous breeze frustrates   
2014 Off Valparaíso Race - Day 1   
Sunfish World Championship - Victory for Argentina's Francisco Renna   
Volvo Ocean Race - Feeling the pressure six days in   


For this week's complete news stories select    Last 7 Days
   Search All News
For last month's complete news stories select    Last 30 Days
   Archive News







Sail-World.com  


















Switch Default Region to:

Social Media

Asia

Australia

Canada

Europe

New Zealand

United Kingdom


http://www.sail-world.com/event_images/image/Twitter_logo_small.png http://www.sail-world.com/event_images/image/FaceBook-icon.png  http://www.sail-world.com/event_images/image/RSS-Icon.png

United States

Cruising Northern

Cruising Southern

MarineBusiness World

PowerBoat World

FishingBoating World

 

Contact

Commercial

News

Search

Contact Us

Advertisers Information

Submit news/events

Search Stories/Text

Feedback

Advertisers Directory

Newsletter Archive

Photo Gallery

 

Banner Advertising Details

Newsletter Subscribe

Video Gallery

Policies

 

 

 

Privacy Policy

 

 


Cookie Policy

 

 



This site and its contents are © Copyright TetraMedia and/or the original author, photographer etc. All Rights Reserved.  Photographs are copyright by law.  If you wish to use or buy a photograph contact the photographer directly.
XLXL NEW US
LocalAds   DE  ES  FR  IT